CZ-3A DEB, 35556

Orbit data source: Space-Track

CZ-3A DEB, 35556 is space debris in HEO originally from a launch on Fri, 02 Feb 2007 UTC launched from the Xichang Space Center, China (XSC). Debris objects in space refer to the collection of defunct objects orbiting the Earth. Examples of debris include non-operational satellites, rocket bodies, and fragments generated from explosions, collisions, or faulty payload assembly.

Loading next visibility...
Identifier
35556, 2007-003Q
Orbit
HEO
Country
Flag of CNCN / PRC
Related business
Manufacturer
Unknown
Mission
Spacecraft
Bus & Motor
Unknown
Mass
Unknown
Launch date (UTC)
2007-02-02 (19 years ago)
Launch vehicle
Unknown
Launch site
Xichang Space Center, China (XSC)
Object type
Payload
Rocket body
Debris
Shape & HBR
Unknown shape, 0.3 m
Radar Cross Section
Medium (>0.1 m² and <1 m²)

Expand to show TLE details & history
Last TLE update: 4 days ago

TLE from 4 days ago
0 CZ-3A DEB
1 35556U 07003Q   26122.84722024  .00000300  00000-0  16232-2 0  9995
2 35556  25.4691 277.5370 7203053  21.7867 357.4001  2.27141926 14442
Epoch: 2026-05-02T20:19Z
TLE epoch observation values (Epoch: 2026-05-02T20:19:59.828Z)
Latitude
0.00181°
Longitude
111.7593°
Altitude
693.832 km
Speed
9.819 km/s
True Right ascension
18h 30m 04s
True Declination
0° 00' 06"
Sunlit
Object was in full shadow at epoch
Visualization orbit readout
Latitude
Unknown
Longitude
Unknown
Altitude
Unknown
Speed
Unknown
Apparent Right ascension
Unknown
Apparent Declination
Unknown
Sunlit
N/A
Visualization observer readout
Local Sidereal Time
16:36:00
Azimuth
Unknown
Elevation
Unknown
Doppler factor
Unknown
Orbital elements
Apogee altitude
35,682.78 km
Perigee altitude
460.309 km
Semi-major axis
24,449.681 km
Eccentricity
0.72031
Inclination
25.4691°
RAAN
277.537°
Arg. of periapsis
21.7867°
True anomaly
337.44518°
Mean anomaly
357.4001°
Eccentric anomaly
350.80599°
Mean motion
0.56772 °/min
Orbital period
634.12 mins
BSTAR
0.0016232
Loading maneuver chart data...
Computing Atmospheric mass density...
Loading historical data...
Loading historical data...
Loading historical data...
Loading historical data...
Loading historical data...
Loading historical data...
Loading historical data...

Documentation

Showing up to 5 results
|